Meteo Giornale » Osservazioni meteo Italia » Cuneo-Levaldigi

ore: 07:20 - Osservazioni Meteo Cuneo-Levaldigi
Lat. 44° 32' N Lon. 7° 37' E Alt. 396 metri s.l.m.

nebbia Europe/Rome

10 °C

Banco di Nebbia

Temp. 24 Ore

10 °C

15 °C

Nord

0 Km/h

Dew point 10 °C

Umidità 100 %

Visibilità  0.9 Km

Il sole sorge alle ore 07:54

Il sole tramonta alle ore 18:33

Data e Ora Cielo e Fenomeni T °C DP °C Um. % Pres. hPa Vis. km Vento km/h
Oggi h: 07:20 nebbia Banco di Nebbia 10 10 100 1020 0.9 N 0
Oggi h: 06:50 coperto_pioggia Pioviggine Leggera Foschia 10 10 100 1021 0.2 N 0
Oggi h: 05:50 coperto_pioggia Pioviggine Leggera Foschia 10 10 100 1021 0.8 N 1.8
Oggi h: 04:50 nebbia Nebbia 10 10 100 1021 0.45 N 3.7
Oggi h: 04:20 coperto_pioggia Pioggia Debole Nebbia 11 11 100 1021 0.2 N 1.8
Oggi h: 03:50 nebbia Banco di Nebbia 10 10 100 1022 0.1 N 1.8
Oggi h: 03:20 nebbia Nebbia 11 11 100 1022 0.2 N 1.8
Oggi h: 02:50 nebbia Banco di Nebbia 11 11 100 1022 2 N 0
Oggi h: 02:20 foschia Foschia 12 11 93 1023 2 N 0
Oggi h: 01:50 foschia Foschia 12 12 100 1023 2 N 0
Oggi h: 01:20 foschia Foschia 12 12 100 1023 3 N 0
Oggi h: 00:50 foschia Foschia 12 12 100 1023 2 N 1.8
Oggi h: 00:20 foschia Foschia 12 12 100 1023 2 N 1.8
Ieri h: 23:50 foschia Foschia 12 12 100 1023 3 N 1.8
Ieri h: 23:20 foschia Foschia 12 11 93 1023 0.5 N 3.7
Ieri h: 22:50 foschia Foschia 12 11 93 1023 2 N 0
Ieri h: 22:20 foschia Foschia 12 11 93 1023 3 N 1.8
Ieri h: 21:50 foschia Foschia 11 11 100 1023 3 N 1.8
Ieri h: 21:20 foschia Foschia 12 12 100 1024 4 N 0
Ieri h: 20:50 foschia Foschia 12 12 100 1024 4 N 3.7
Ieri h: 20:20 foschia Foschia 12 12 100 1024 4 N 0
Ieri h: 19:50 foschia Foschia 12 11 93 1023 4 N 3.7
Ieri h: 19:20 foschia Foschia 12 11 93 1023 4 N 1.8
Ieri h: 18:50 foschia Foschia 13 12 93 1023 4 N 5.5
Ieri h: 18:20 foschia Foschia 13 12 93 1023 4 NE 7.4
Ieri h: 17:50 foschia Foschia 14 12 87 1023 4 E/NE 11.1
Ieri h: 16:50 coperto Coperto 15 10 72 1023 10 N 5.5
Ieri h: 16:20 coperto Coperto 15 11 76 1023 10 N 5.5
Ieri h: 15:50 molto_nuvoloso Molto Nuvoloso 15 11 76 1023 10 N 5.5
Ieri h: 15:20 coperto Coperto 15 11 76 1023 10 NE 7.4
Ieri h: 14:50 coperto Coperto 15 10 72 1023 10 N 5.5
Ieri h: 14:20 coperto Coperto 15 10 72 1024 10 N 5.5
Ieri h: 13:50 coperto Coperto 15 10 72 1024 10 E/NE 7.4
Ieri h: 13:20 coperto Coperto 15 11 76 1024 9 N 3.7
Ieri h: 12:50 coperto Coperto 15 10 72 1025 8 N 1.8
Ieri h: 12:20 coperto Coperto 14 11 82 1025 6 N 3.7
Ieri h: 11:50 foschia Foschia 14 11 82 1025 5 N 1.8
Ieri h: 11:20 foschia Foschia 13 11 87 1025 5 N 1.8
Ieri h: 10:50 foschia Foschia 13 11 87 1025 4 N 1.8
Ieri h: 10:20 coperto_pioggia Pioggia Debole Foschia 12 11 93 1025 3 N 1.8
Ieri h: 09:50 foschia Foschia 12 11 93 1025 3 N 1.8
Ieri h: 09:20 foschia Foschia 12 11 93 1025 3 N 0
Ieri h: 08:50 foschia Foschia 11 11 100 1024 3 N 1.8
Ieri h: 08:20 foschia Foschia 11 11 100 1024 3 N 1.8